This is the latest recevied weather packets stored in our database for station/object SR8WXL-13. If no packets are shown the sender has not sent any weather packets the latest 10 day(s).
| Time | Temp. | Humidity | Pressure | Rain* | Wind** | Luminosity | Snow |
|---|---|---|---|---|---|---|---|
| 1788590535 | 17.78° C | 72% | 1029.9 hPa | 0 mm | - | - | - |
| 1788589740 | 17.78° C | 72% | 1029.2 hPa | 0 mm | - | - | - |
| 1788588890 | 17.78° C | 73% | 1029.1 hPa | 0 mm | - | - | - |
| 1788588030 | 17.78° C | 73% | 1029.2 hPa | 0 mm | - | - | - |
| 1788587140 | 17.78° C | 73% | 1029.4 hPa | 0 mm | - | - | - |
| 1788586269 | 17.22° C | 73% | 1029.1 hPa | 0 mm | - | - | - |
| 1788585460 | 17.22° C | 75% | 1028.8 hPa | 0 mm | - | - | - |
| 1788584551 | 17.22° C | 76% | 1028.3 hPa | 0 mm | - | - | - |
| 1788583796 | 17.22° C | 79% | 1028.5 hPa | 0 mm | - | - | - |
| 1788582929 | 17.22° C | 81% | 1028.3 hPa | 0 mm | - | - | - |
| 1788582183 | 16.11° C | 82% | 1028.4 hPa | 0 mm | - | - | - |
| 1788581285 | 17.22° C | 82% | 1028.5 hPa | 0 mm | - | - | - |
| 1788580516 | 17.22° C | 82% | 1028.9 hPa | 0 mm | - | - | - |
| 1788579784 | 17.22° C | 81% | 1029 hPa | 0 mm | - | - | - |
| 1788579007 | 17.22° C | 82% | 1029.2 hPa | 0 mm | - | - | - |
| 1788578195 | 17.78° C | 78% | 1029.2 hPa | 0 mm | - | - | - |
| 1788577349 | 17.78° C | 77% | 1028.8 hPa | 0 mm | - | - | - |
| 1788576449 | 18.89° C | 75% | 1028.7 hPa | 0 mm | - | - | - |
| 1788575706 | 18.89° C | 74% | 1028.1 hPa | 0 mm | - | - | - |
| 1788574982 | 18.89° C | 73% | 1027.9 hPa | 0 mm | - | - | - |
| 1788574199 | 18.89° C | 73% | 1027.7 hPa | 0 mm | - | - | - |
| 1788573419 | 18.89° C | 71% | 1027.5 hPa | 0 mm | - | - | - |
| 1788572679 | 18.89° C | 70% | 1027.4 hPa | 0 mm | - | - | - |
| 1788571959 | 18.89° C | 70% | 1026.9 hPa | 0 mm | - | - | - |
| 1788571129 | 18.89° C | 69% | 1026.7 hPa | 0 mm | - | - | - |
* Rain latest hour (hover to see other rain measurements)
** Current wind speed in m/s (hover to see current wind gust speed)